sat.trackr.live / text

‹ back to catalog

KUIPER-00124

NORAD 65953 · 2025-228G

PAYLOAD ACTIVE UNKNOWN

§ Identity

Operator
Country
US
Launch date
2025-10-14
Launch site
AFETR
Launch vehicle
Mass (kg)
RCS (m²)

External: N2YO · Heavens-Above · Gunter

§ Orbital elements

Epoch: 2026-09-20T06:06:03.083040Z

Period
97.30 min
Inclination
51.8974°
Eccentricity
0.0000995
Mean motion
14.79929738 rev/d
Perigee alt
628.8 km
Apogee alt
630.2 km
Semi-major
7,007.7 km
B*
2.9872e-4
RAAN
215.1856°
Arg perigee
59.4696°
Mean anomaly
300.6364°
Rev number
5,211

§ Raw data

KUIPER-001241 65953U 25228G   26263.25420235  .00002057  00000+0  29872-3 0  99932 65953  51.8974 215.1856 0000995  59.4696 300.6364 14.79929738 52114

JSON: /api/v1/satellites/65953 · /tle

For live sub-satellite position, see the globe view (requires WebGL).

§ Visibility from observer

Set your observer location to see the next 7 days of passes ≥ 10°. The values pass through the URL so the page stays shareable.

No JS? Fill the form by hand. The geolocation button needs JavaScript.